This is the latest recevied weather packets stored in our database for station/object KK6MIG-13. If no packets are shown the sender has not sent any weather packets the latest 1 day(s).
| Time | Temp. | Humidity | Pressure | Rain* | Wind** | Luminosity | Snow |
|---|---|---|---|---|---|---|---|
| 1777989572 | 12.22° C | 1% | 1013.4 hPa | 0 mm | 2.68 m/s, 227° | 14 W/m² | - |
| 1777989509 | 12.22° C | 1% | 1013.4 hPa | 0 mm | 2.68 m/s, 252° | 14 W/m² | - |
| 1777989457 | 12.22° C | 1% | 1013.4 hPa | 0 mm | 2.68 m/s, 246° | 12 W/m² | - |
| 1777989453 | 12.22° C | 1% | 1013.4 hPa | 0 mm | 2.68 m/s, 250° | 14 W/m² | - |
| 1777989328 | 12.22° C | 1% | 1013.4 hPa | 0 mm | 2.68 m/s, 224° | 11 W/m² | - |
| 1777989200 | 12.22° C | 1% | 1013.4 hPa | 0 mm | 2.68 m/s, 206° | 7 W/m² | - |
| 1777989140 | 12.22° C | 1% | 1013.4 hPa | 0 mm | 2.68 m/s, 250° | 7 W/m² | - |
| 1777989080 | 12.22° C | 1% | 1013.3 hPa | 0 mm | 2.68 m/s, 236° | 5 W/m² | - |
| 1777989020 | 12.22° C | 1% | 1013.3 hPa | 0 mm | 2.68 m/s, 243° | 5 W/m² | - |
| 1777988960 | 12.22° C | 1% | 1013.3 hPa | 0 mm | 2.68 m/s, 269° | 5 W/m² | - |
| 1777988894 | 12.22° C | 1% | 1013.3 hPa | 0 mm | 2.24 m/s, 246° | 5 W/m² | - |
| 1777988834 | 12.22° C | 1% | 1013.2 hPa | 0 mm | 2.24 m/s, 254° | 0 W/m² | - |
| 1777988774 | 12.22° C | 1% | 1013.3 hPa | 0 mm | 2.24 m/s, 229° | 0 W/m² | - |
| 1777988715 | 12.22° C | 1% | 1013.2 hPa | 0 mm | 2.24 m/s, 257° | 0 W/m² | - |
| 1777988654 | 12.22° C | 1% | 1013.2 hPa | 0 mm | 2.24 m/s, 223° | 0 W/m² | - |
| 1777988594 | 12.22° C | 1% | 1013.2 hPa | 0 mm | 2.24 m/s, 228° | 0 W/m² | - |
| 1777988532 | 12.22° C | 1% | 1013.2 hPa | 0 mm | 2.24 m/s, 256° | 0 W/m² | - |
| 1777988472 | 12.22° C | 1% | 1013.2 hPa | 0 mm | 2.24 m/s, 246° | 0 W/m² | - |
| 1777988410 | 12.22° C | 1% | 1013.2 hPa | 0 mm | 2.24 m/s, 250° | 0 W/m² | - |
| 1777988348 | 12.22° C | 1% | 1013.2 hPa | 0 mm | 2.24 m/s, 237° | 0 W/m² | - |
| 1777988283 | 12.22° C | 1% | 1013.2 hPa | 0 mm | 2.24 m/s, 251° | 0 W/m² | - |
| 1777988222 | 12.22° C | 1% | 1013.2 hPa | 0 mm | 2.68 m/s, 240° | 0 W/m² | - |
| 1777988162 | 12.22° C | 1% | 1013.2 hPa | 0 mm | 2.68 m/s, 236° | 0 W/m² | - |
| 1777988102 | 12.22° C | 1% | 1013.2 hPa | 0 mm | 2.24 m/s, 225° | 5 W/m² | - |
| 1777988041 | 12.22° C | 1% | 1013.1 hPa | 0 mm | 2.24 m/s, 232° | 5 W/m² | - |
* Rain latest hour (hover to see other rain measurements)
** Current wind speed in m/s (hover to see current wind gust speed)